Regional Weather Roundup
Issued by NWS Sterling, VA

Home | Current Version | Previous Version | Graphics & Text | Print | Product List | Glossary On
Versions: 1 2 3 4 5 6 7 8 9 10 11 12 13 14 15 16 17 18 19 20 21 22 23 24 25 26 27 28 29 30 31 32 33 34 35 36 37 38 39 40 41 42 43 44 45 46 47 48 49 50
000
ASUS41 KLWX 211210
RWRLWX

REGIONAL WEATHER ROUNDUP
NATIONAL WEATHER SERVICE BALTIMORE MD/WASHINGTON DC
700 AM EST SUN DEC 21 2014

Note: "FAIR" indicates few or no clouds below 12,000 feet
with no significant weather and/or obstructions to visibility.
 TC=TEMPERATURE CELSIUS

 * =Non NWS site. Station does not report precipitation (e.g. rain,
    snow, etc.), thunder, or fog.

DCZ001-MDZ009-015-VAZ040>042-051-053>054-211300-
WASHINGTON METRO

CITY           SKY/WX    TMP DP  RH WIND       PRES   REMARKS
WASHINGTON NAT CLOUDY    37  23  56 N3        30.34S
DULLES         CLOUDY    32  24  72 CALM      30.33R
ANDREWS AFB    CLOUDY    31  26  80 CALM        N/A
FT BELVOIR     CLOUDY    32  28  82 CALM      30.34R
QUANTICO       CLOUDY    34  26  72 CALM      30.35R
COLLEGE PARK*  CLOUDY    34  27  75 CALM      30.33S
LEESBURG*      CLOUDY    32  28  86 CALM      30.33S
GAITHERSBURG*  CLOUDY    30  21  69 CALM      30.35S

$$

MDZ006>007-011-014-211300-
BALTIMORE METRO

CITY           SKY/WX    TMP DP  RH WIND       PRES   REMARKS
BWI AIRPORT    CLOUDY    32  23  69 CALM      30.33R
MD SCIENCE CTR   N/A     34  22  61 MISG      30.34R
MARTIN STATE   CLOUDY    34  27  75 CALM      30.36R
ANNAPOLIS      CLOUDY    34  26  72 NW3       30.34R
FORT MEADE*    CLOUDY    32  27  80 CALM      30.36R

$$

MDZ012-015-019>023-211300-
MARYLAND EASTERN SHORE

CITY           SKY/WX    TMP DP  RH WIND       PRES   REMARKS
OCEAN CITY     CLOUDY    31  27  85 CALM      30.33R
SALISBURY      CLOUDY    33  27  78 CALM      30.33R
BAY BRIDGE AP*   N/A     34  30  86 CALM      30.34R
CAMBRIDGE*     CLOUDY    32  30  93 CALM      30.33R

$$

MDZ017>025-211300-
SOUTHERN MARYLAND

CITY           SKY/WX    TMP DP  RH WIND       PRES   REMARKS
PATUXENT RIVER CLOUDY    34  27  75 NW6       30.33R
ST INIGOES     CLOUDY    35  24  64 CALM      30.33R
LEONARDTOWN*   CLOUDY    32  27  80 CALM      30.35R

$$

MDZ003>005-211300-
NORTH CENTRAL MARYLAND

CITY           SKY/WX    TMP DP  RH WIND       PRES   REMARKS
FREDERICK*     CLOUDY    32  23  69 CALM      30.36R
HAGERSTOWN APT CLOUDY    30  23  75 CALM      30.30R
WESTMINSTER*   CLOUDY    28  21  74 CALM      30.30R

$$

MDZ501>502-211300-
WESTERN MARYLAND

CITY           SKY/WX    TMP DP  RH WIND       PRES   REMARKS
OAKLAND*       CLOUDY    23 N/A N/A W3        30.19R HAZE
CUMBERLAND*    CLOUDY    32  27  80 CALM      30.34R

$$

VAZ025>031-211300-
SHENANDOAH VALLEY

CITY           SKY/WX    TMP DP  RH WIND       PRES   REMARKS
WINCHESTER*    CLOUDY    32  23  69 CALM      30.30S
FRONT ROYAL*   CLOUDY    32  25  74 CALM      30.30R
LURAY*         CLOUDY    32  28  86 NE3       30.29R
NEW MARKET*    CLOUDY    31  24  77 CALM      30.28R
STAUNTON*      CLOUDY    32  28  83 CALM      30.29R
WAYNESBORO*    CLOUDY    30  25  81 CALM      30.26R

$$

WVZ021-048>050-054>055-211300-
EASTERN WEST VIRGINIA PANHANDLE

CITY           SKY/WX    TMP DP  RH WIND       PRES   REMARKS
MARTINSBURG    CLOUDY    32  22  66 CALM      30.32R
PETERSBURG*    CLOUDY    32  28  85 CALM      30.30R

$$

VAZ036>039-050-211300-
CENTRAL FOOTHILLS

CITY           SKY/WX    TMP DP  RH WIND       PRES   REMARKS
CHARLOTTESVILL CLOUDY    32  26  78 N3        30.30R
CULPEPER*      CLOUDY    34  28  80 CALM      30.33R
ORANGE*        CLOUDY    34  30  86 CALM      30.33R
GORDONSVILLE*  CLOUDY    32  27  82 CALM      30.31R
WARRENTON*     CLOUDY    33  32  98 CALM      30.32R

$$

VAZ055>057-211300-
NORTH AND CENTRAL PIEDMONT

CITY           SKY/WX    TMP DP  RH WIND       PRES   REMARKS
FREDERICKSBRG* CLOUDY    34  30  86 CALM      30.34R
STAFFORD*      CLOUDY    32  27  83 CALM      30.38R

$$

NCZ024-NYZ072-PAZ021-071-VAZ022-071-211300-
OTHER REGIONAL OBSERVATIONS

CITY           SKY/WX    TMP DP  RH WIND       PRES   REMARKS
NEW YORK CITY  CLOUDY    31  24  75 NW5       30.31R
PHILADELPHIA   MOCLDY    31  22  69 NW3       30.33R
PITTSBURGH     CLOUDY    28  22  78 CALM      30.29R
ROANOKE        CLOUDY    35  27  72 CALM      30.28R
RICHMOND       CLOUDY    36  26  67 CALM      30.32R
RALEIGH        CLOUDY    38  34  85 E5        30.29R FOG

$$

ANZ530>537-211300-
MARINE OBSERVATIONS

STATION/POSITION TIME  TEMP    WIND        PRES
                       AIR SEA DIR/SP/G
                 (UTC) (F)     (DEG/KT/KT) (MB)
THOMAS PT LIGHT  1200   35 40  350/  7/  7 1028.3R
BALT KEY BRIDGE  1200   34     340/  4/  5 1027.2R
COVE POINT       1200   34     340/  5/  6 1027.0R
LEWISETTA        1200   36 41  360/  3/  5 1026.9R
SOLOMONS ISLAND  1200      42                N/A

$$




USA.gov is the U.S. government's official web portal to all federal, state and local government web resources and services.